Location: Chavenne
(46.6022°N, 3.2951°E)
Time: 03:51:31
(UTC+00:00)

STARLINK-1217 - Pass Details

Date: 09 April 2020
Orbit: 378 x 381 km, 53.0° (Epoch: 02 June)

Event Time Altitude Azimuth Distance (km) Brightness Sun altitude
Rises 19:43:03 0° 299° (WNW) 2,265 8.9 -13.1°
Reaches altitude 10° 19:45:07 10° 299° (WNW) 1,408 7.2 -13.4°
Maximum altitude 19:48:16 86° 210° (SSW) 388 2.8 -13.9°
Enters shadow 19:49:37 31° 124° (ESE) 700 3.6 -14.1°
